| time (UTC) | temp C | wind direction | speed KPH | gust KPH | rain 1hr cm | rain 24hr cm | rain mn cm | humidity % | barometer mb |
| 20260507093520 | 1 | 79 | 9.7 | 12.9 | 0.00 | 0.00 | 0.00 | 1 | 1013.7 |
| 20260507093018 | 1 | 99 | 8.0 | 9.7 | 0.00 | 0.00 | 0.00 | 1 | 1013.6 |
| 20260507092514 | 1 | 90 | 8.0 | 11.3 | 0.00 | 0.00 | 0.00 | 1 | 1013.6 |
| 20260507092011 | 1 | 90 | 9.7 | 9.7 | 0.00 | 0.00 | 0.00 | 1 | 1013.8 |
| 20260507091508 | 1 | 97 | 8.0 | 12.9 | 0.00 | 0.00 | 0.00 | 1 | 1013.7 |
| 20260507091004 | 1 | 98 | 8.0 | 8.0 | 0.00 | 0.00 | 0.00 | 1 | 1013.8 |
| 20260507090500 | 1 | 106 | 8.0 | 12.9 | 0.00 | 0.00 | 0.00 | 1 | 1013.7 |
| 20260507085956 | 1 | 99 | 8.0 | 8.0 | 0.00 | 0.00 | 0.00 | 1 | 1013.9 |
| 20260507085454 | 1 | 97 | 8.0 | 11.3 | 0.00 | 0.00 | 0.00 | 1 | 1013.9 |
| 20260507084950 | 1 | 100 | 6.4 | 11.3 | 0.00 | 0.00 | 0.00 | 1 | 1014.0 |
| 20260507084447 | 1 | 96 | 11.3 | 11.3 | 0.00 | 0.00 | 0.00 | 1 | 1013.9 |
| 20260507083944 | 1 | 103 | 8.0 | 11.3 | 0.00 | 0.00 | 0.00 | 1 | 1013.9 |
| 20260507083440 | 1 | 90 | 6.4 | 11.3 | 0.00 | 0.00 | 0.00 | 1 | 1013.9 |
| 20260507082937 | 1 | 99 | 12.9 | 12.9 | 0.00 | 0.00 | 0.00 | 1 | 1014.0 |
| 20260507082433 | 1 | 98 | 8.0 | 14.5 | 0.00 | 0.00 | 0.00 | 1 | 1014.0 |
| 20260507081930 | 1 | 92 | 8.0 | 12.9 | 0.00 | 0.00 | 0.00 | 1 | 1013.9 |
| 20260507081426 | 1 | 88 | 9.7 | 12.9 | 0.00 | 0.00 | 0.00 | 1 | 1014.1 |
| 20260507080923 | 1 | 92 | 9.7 | 12.9 | 0.00 | 0.00 | 0.00 | 1 | 1014.1 |
| 20260507080419 | 1 | 97 | 8.0 | 12.9 | 0.00 | 0.00 | 0.00 | 1 | 1014.1 |
| 20260507075915 | 1 | 94 | 8.0 | 9.7 | 0.00 | 0.00 | 0.00 | 1 | 1014.2 |
| 20260507075411 | 1 | 103 | 9.7 | 11.3 | 0.00 | 0.00 | 0.00 | 1 | 1014.2 |
| 20260507074908 | 1 | 90 | 8.0 | 11.3 | 0.00 | 0.00 | 0.00 | 1 | 1014.2 |
| 20260507074404 | 1 | 95 | 8.0 | 12.9 | 0.00 | 0.00 | 0.00 | 1 | 1014.2 |
| 20260507073902 | 1 | 96 | 9.7 | 9.7 | 0.00 | 0.00 | 0.00 | 1 | 1014.4 |
| 20260507073358 | 1 | 92 | 8.0 | 9.7 | 0.00 | 0.00 | 0.00 | 1 | 1014.4 |
| 20260507072856 | 1 | 85 | 11.3 | 12.9 | 0.00 | 0.00 | 0.00 | 1 | 1014.3 |
| 20260507072353 | 1 | 85 | 9.7 | 11.3 | 0.00 | 0.00 | 0.00 | 1 | 1014.5 |
| 20260507071850 | 2 | 74 | 11.3 | 11.3 | 0.00 | 0.00 | 0.00 | 1 | 1014.5 |
| 20260507071348 | 3 | 95 | 9.7 | 12.9 | 0.00 | 0.00 | 0.00 | 1 | 1014.5 |
| 20260507070843 | 3 | 86 | 8.0 | 9.7 | 0.00 | 0.00 | 0.00 | 1 | 1014.3 |
| 20260507070341 | 3 | 75 | 6.4 | 9.7 | 0.00 | 0.00 | 0.00 | 1 | 1014.3 |
| 20260507065838 | 3 | 73 | 8.0 | 11.3 | 0.00 | 0.00 | 0.00 | 1 | 1014.5 |
| 20260507065334 | 3 | 90 | 6.4 | 9.7 | 0.00 | 0.00 | 0.00 | 1 | 1014.6 |
| 20260507064831 | 3 | 78 | 9.7 | 11.3 | 0.00 | 0.00 | 0.00 | 1 | 1014.6 |
| 20260507064330 | 3 | 90 | 6.4 | 12.9 | 0.00 | 0.00 | 0.00 | 1 | 1014.3 |
| 20260507063827 | 4 | 92 | 8.0 | 11.3 | 0.00 | 0.00 | 0.00 | 1 | 1014.3 |
| 20260507063324 | 4 | 95 | 6.4 | 8.0 | 0.00 | 0.00 | 0.00 | 1 | 1014.3 |
| 20260507062821 | 5 | 90 | 6.4 | 12.9 | 0.00 | 0.00 | 0.00 | 1 | 1014.3 |
| 20260507062318 | 5 | 88 | 6.4 | 9.7 | 0.00 | 0.00 | 0.00 | 1 | 1014.4 |
| 20260507061816 | 5 | 88 | 8.0 | 8.0 | 0.00 | 0.00 | 0.00 | 1 | 1014.4 |
| 20260507061314 | 6 | 87 | 4.8 | 6.4 | 0.00 | 0.00 | 0.00 | 1 | 1014.4 |
| 20260507060812 | 6 | 109 | 8.0 | 9.7 | 0.00 | 0.00 | 0.00 | 1 | 1014.5 |
| 20260507060308 | 6 | 105 | 6.4 | 8.0 | 0.00 | 0.00 | 0.00 | 1 | 1014.6 |
| 20260507055805 | 6 | 93 | 4.8 | 4.8 | 0.00 | 0.00 | 0.00 | 1 | 1014.6 |
| 20260507055300 | 6 | 112 | 3.2 | 4.8 | 0.00 | 0.00 | 0.00 | 1 | 1014.8 |
| 20260507054756 | 6 | 129 | 4.8 | 4.8 | 0.00 | 0.00 | 0.00 | 1 | 1014.6 |
| 20260507054253 | 6 | 105 | 1.6 | 4.8 | 0.00 | 0.00 | 0.00 | 1 | 1014.8 |
| 20260507053750 | 6 | 110 | 3.2 | 4.8 | 0.00 | 0.00 | 0.00 | 1 | 1014.8 |
| 20260507053248 | 6 | 107 | 3.2 | 4.8 | 0.00 | 0.00 | 0.00 | 1 | 1014.9 |
| 20260507052747 | 6 | 111 | 1.6 | 3.2 | 0.00 | 0.00 | 0.00 | 1 | 1014.8 |
| 20260507052243 | 6 | 120 | 3.2 | 6.4 | 0.00 | 0.00 | 0.00 | 1 | 1014.8 |
| 20260507051741 | 6 | 127 | 3.2 | 4.8 | 0.00 | 0.00 | 0.00 | 1 | 1014.9 |
| 20260507051237 | 6 | 121 | 3.2 | 4.8 | 0.00 | 0.00 | 0.00 | 1 | 1014.9 |
| 20260507050734 | 7 | 144 | 4.8 | 4.8 | 0.00 | 0.00 | 0.00 | 1 | 1015.0 |
| 20260507050231 | 7 | 135 | 3.2 | 4.8 | 0.00 | 0.00 | 0.00 | 1 | 1015.1 |
| 20260507045728 | 7 | 158 | 3.2 | 4.8 | 0.00 | 0.00 | 0.00 | 1 | 1015.0 |
| 20260507045224 | 7 | 150 | 3.2 | 4.8 | 0.00 | 0.00 | 0.00 | 1 | 1014.9 |
| 20260507044722 | 7 | 162 | 4.8 | 4.8 | 0.00 | 0.00 | 0.00 | 1 | 1015.2 |
| 20260507044218 | 7 | 142 | 3.2 | 6.4 | 0.00 | 0.00 | 0.00 | 1 | 1015.3 |
| 20260507043714 | 7 | 151 | 4.8 | 6.4 | 0.00 | 0.00 | 0.00 | 1 | 1015.1 |
| 20260507043211 | 6 | 150 | 4.8 | 6.4 | 0.00 | 0.00 | 0.00 | 1 | 1015.0 |
| 20260507042708 | 6 | 150 | 3.2 | 6.4 | 0.00 | 0.00 | 0.00 | 1 | 1015.5 |
| 20260507042202 | 7 | 162 | 3.2 | 6.4 | 0.00 | 0.00 | 0.00 | 1 | 1015.4 |
| 20260507041700 | 7 | 169 | 1.6 | 6.4 | 0.00 | 0.00 | 0.00 | 1 | 1015.4 |
| 20260507041156 | 7 | 146 | 0.0 | 4.8 | 0.00 | 0.00 | 0.00 | 1 | 1015.6 |
| 20260507040653 | 7 | 131 | 1.6 | 4.8 | 0.00 | 0.00 | 0.00 | 1 | 1015.7 |
| 20260507040150 | 7 | 147 | 3.2 | 4.8 | 0.00 | 0.00 | 0.00 | 1 | 1015.7 |
| 20260507035646 | 7 | 114 | 1.6 | 4.8 | 0.00 | 0.00 | 0.00 | 1 | 1015.8 |
| 20260507035142 | 7 | 123 | 1.6 | 3.2 | 0.00 | 0.00 | 0.00 | 1 | 1015.6 |
| 20260507034639 | 7 | 108 | 4.8 | 6.4 | 0.00 | 0.00 | 0.00 | 1 | 1016.0 |
| 20260507034136 | 7 | 105 | 4.8 | 6.4 | 0.00 | 0.00 | 0.00 | 1 | 1015.8 |
| 20260507033635 | 7 | 114 | 1.6 | 4.8 | 0.00 | 0.00 | 0.00 | 1 | 1015.9 |
| 20260507033131 | 7 | 112 | 6.4 | 8.0 | 0.00 | 0.00 | 0.00 | 1 | 1015.9 |
| 20260507032629 | 8 | 114 | 4.8 | 8.0 | 0.00 | 0.00 | 0.00 | 1 | 1016.0 |
| 20260507032125 | 9 | 104 | 4.8 | 4.8 | 0.00 | 0.00 | 0.00 | 1 | 1016.1 |
| 20260507031622 | 9 | 105 | 4.8 | 4.8 | 0.00 | 0.00 | 0.00 | 1 | 1016.2 |
| 20260507031118 | 10 | 94 | 3.2 | 4.8 | 0.00 | 0.00 | 0.00 | 1 | 1016.1 |
| 20260507030615 | 9 | 95 | 3.2 | 3.2 | 0.00 | 0.00 | 0.00 | 1 | 1016.2 |
| 20260507030113 | 9 | 286 | 0.0 | 0.0 | 0.00 | 0.00 | 0.00 | 1 | 1016.3 |
| 20260507025610 | 9 | 286 | 0.0 | 0.0 | 0.00 | 0.00 | 0.00 | 1 | 1016.1 |
| 20260507025107 | 10 | 286 | 0.0 | 0.0 | 0.00 | 0.00 | 0.00 | 1 | 1016.4 |
| 20260507024605 | 10 | 286 | 0.0 | 0.0 | 0.00 | 0.00 | 0.00 | 1 | 1016.2 |
| 20260507024102 | 10 | 286 | 0.0 | 0.0 | 0.00 | 0.00 | 0.00 | 1 | 1016.3 |
| 20260507023557 | 10 | 286 | 0.0 | 0.0 | 0.00 | 0.00 | 0.00 | 1 | 1016.3 |
| 20260507023055 | 10 | 286 | 0.0 | 0.0 | 0.00 | 0.00 | 0.00 | 1 | 1016.5 |
| 20260507022551 | 10 | 286 | 0.0 | 0.0 | 0.00 | 0.00 | 0.00 | 1 | 1016.2 |
| 20260507022046 | 10 | 286 | 0.0 | 1.6 | 0.00 | 0.00 | 0.00 | 1 | 1016.3 |
| 20260507021543 | 10 | 306 | 0.0 | 0.0 | 0.00 | 0.00 | 0.00 | 1 | 1016.4 |
| 20260507021040 | 10 | 15 | 0.0 | 3.2 | 0.00 | 0.00 | 0.00 | 1 | 1016.3 |
| 20260507020538 | 10 | 23 | 0.0 | 1.6 | 0.00 | 0.00 | 0.00 | 1 | 1016.3 |
| 20260507020034 | 10 | 315 | 0.0 | 0.0 | 0.00 | 0.00 | 0.00 | 1 | 1016.2 |
| 20260507015532 | 10 | 315 | 0.0 | 0.0 | 0.00 | 0.00 | 0.00 | 1 | 1016.4 |
| 20260507015029 | 10 | 294 | 0.0 | 1.6 | 0.00 | 0.00 | 0.00 | 1 | 1016.3 |
| 20260507014526 | 10 | 270 | 1.6 | 3.2 | 0.00 | 0.00 | 0.00 | 1 | 1016.2 |
| 20260507014021 | 10 | 32 | 0.0 | 3.2 | 0.00 | 0.00 | 0.00 | 1 | 1016.2 |
| 20260507013518 | 11 | 29 | 3.2 | 3.2 | 0.00 | 0.00 | 0.00 | 1 | 1016.3 |
| 20260507013016 | 10 | 297 | 3.2 | 4.8 | 0.00 | 0.00 | 0.00 | 1 | 1016.3 |
| 20260507012513 | 11 | 35 | 0.0 | 4.8 | 0.00 | 0.00 | 0.00 | 1 | 1016.2 |
| 20260507012009 | 11 | 303 | 3.2 | 4.8 | 0.00 | 0.00 | 0.00 | 1 | 1016.4 |
| 20260507011506 | 11 | 287 | 3.2 | 4.8 | 0.00 | 0.00 | 0.00 | 1 | 1016.3 |
| 20260507011002 | 11 | 345 | 0.0 | 4.8 | 0.00 | 0.00 | 0.00 | 1 | 1016.4 |
| 20260507010456 | 11 | 237 | 4.8 | 6.4 | 0.00 | 0.00 | 0.00 | 1 | 1016.3 |
| 20260507005954 | 12 | 330 | 0.0 | 11.3 | 0.00 | 0.00 | 0.00 | 1 | 1016.5 |
| 20260507005451 | 12 | 314 | 6.4 | 17.7 | 0.00 | 0.00 | 0.00 | 1 | 1016.7 |
| 20260507004947 | 12 | 263 | 4.8 | 11.3 | 0.00 | 0.00 | 0.00 | 1 | 1016.4 |
| 20260507004444 | 12 | 284 | 14.5 | 16.1 | 0.00 | 0.00 | 0.00 | 1 | 1016.5 |
| 20260507003942 | 12 | 270 | 8.0 | 12.9 | 0.00 | 0.00 | 0.00 | 1 | 1016.8 |
| 20260507003437 | 12 | 274 | 8.0 | 12.9 | 0.00 | 0.00 | 0.00 | 1 | 1016.8 |
| 20260507002932 | 12 | 288 | 4.8 | 9.7 | 0.00 | 0.00 | 0.00 | 1 | 1017.0 |
| 20260507002428 | 13 | 305 | 3.2 | 9.7 | 0.00 | 0.00 | 0.00 | 1 | 1016.9 |
| 20260507001926 | 12 | 296 | 8.0 | 17.7 | 0.00 | 0.00 | 0.00 | 1 | 1017.0 |
| 20260507001422 | 12 | 253 | 16.1 | 19.3 | 0.00 | 0.00 | 0.00 | 1 | 1017.0 |
| 20260507000920 | 13 | 4 | 6.4 | 12.9 | 0.00 | 0.00 | 0.00 | 1 | 1017.2 |
| 20260507000415 | 13 | 291 | 4.8 | 16.1 | 0.00 | 0.00 | 0.00 | 1 | 1017.2 |
| 20260506235911 | 13 | 298 | 14.5 | 19.3 | 0.00 | 0.00 | 0.00 | 1 | 1017.2 |
| 20260506235409 | 12 | 293 | 9.7 | 19.3 | 0.00 | 0.00 | 0.00 | 1 | 1017.2 |
| 20260506234904 | 11 | 259 | 16.1 | 19.3 | 0.00 | 0.00 | 0.00 | 1 | 1017.3 |
| 20260506234402 | 12 | 334 | 4.8 | 19.3 | 0.00 | 0.00 | 0.00 | 1 | 1017.2 |
| 20260506233900 | 13 | 301 | 3.2 | 9.7 | 0.00 | 0.00 | 0.00 | 1 | 1017.5 |
| 20260506233355 | 13 | 70 | 11.3 | 16.1 | 0.00 | 0.00 | 0.00 | 1 | 1017.5 |
| 20260506232852 | 13 | 287 | 16.1 | 20.9 | 0.00 | 0.00 | 0.00 | 1 | 1017.5 |
| 20260506232348 | 12 | 283 | 11.3 | 25.7 | 0.00 | 0.00 | 0.00 | 1 | 1017.7 |
| 20260506231844 | 12 | 347 | 8.0 | 27.4 | 0.00 | 0.00 | 0.00 | 1 | 1017.4 |
| 20260506231342 | 12 | 272 | 9.7 | 20.9 | 0.00 | 0.00 | 0.00 | 1 | 1017.5 |
| 20260506230839 | 13 | 350 | 6.4 | 17.7 | 0.00 | 0.00 | 0.00 | 1 | 1017.6 |
| 20260506230336 | 12 | 336 | 6.4 | 22.5 | 0.00 | 0.00 | 0.00 | 1 | 1017.6 |
| 20260506225832 | 12 | 260 | 8.0 | 20.9 | 0.00 | 0.00 | 0.00 | 1 | 1017.7 |
| 20260506225330 | 12 | 299 | 12.9 | 24.1 | 0.00 | 0.00 | 0.00 | 1 | 1017.6 |
| 20260506224827 | 12 | 278 | 14.5 | 24.1 | 0.00 | 0.00 | 0.00 | 1 | 1017.9 |
| 20260506224324 | 13 | 325 | 6.4 | 25.7 | 0.00 | 0.00 | 0.00 | 1 | 1017.8 |
| 20260506223820 | 12 | 267 | 14.5 | 25.7 | 0.00 | 0.00 | 0.00 | 1 | 1017.7 |
| 20260506223309 | 12 | 298 | 12.9 | 22.5 | 0.00 | 0.00 | 0.00 | 1 | 1018.0 |
| 20260506222807 | 12 | 294 | 19.3 | 27.4 | 0.00 | 0.00 | 0.00 | 1 | 1017.9 |
| 20260506222305 | 12 | 327 | 4.8 | 27.4 | 0.00 | 0.00 | 0.00 | 1 | 1018.0 |
| 20260506221801 | 11 | 293 | 9.7 | 14.5 | 0.00 | 0.00 | 0.00 | 1 | 1018.2 |
| 20260506221258 | 11 | 304 | 8.0 | 29.0 | 0.00 | 0.00 | 0.00 | 1 | 1018.2 |
| 20260506220755 | 12 | 336 | 16.1 | 24.1 | 0.00 | 0.00 | 0.00 | 1 | 1018.2 |
| 20260506220250 | 13 | 345 | 8.0 | 14.5 | 0.00 | 0.00 | 0.00 | 1 | 1018.2 |
| 20260506215747 | 12 | 0 | 11.3 | 30.6 | 0.00 | 0.00 | 0.00 | 1 | 1018.2 |
| 20260506215242 | 11 | 303 | 12.9 | 30.6 | 0.00 | 0.00 | 0.00 | 1 | 1018.2 |
| 20260506214733 | 11 | 282 | 12.9 | 35.4 | 0.00 | 0.00 | 0.00 | 1 | 1018.4 |
| 20260506214231 | 12 | 294 | 11.3 | 29.0 | 0.00 | 0.00 | 0.00 | 1 | 1018.4 |
| 20260506213729 | 12 | 285 | 14.5 | 33.8 | 0.00 | 0.00 | 0.00 | 1 | 1018.4 |
| 20260506213226 | 12 | 248 | 27.4 | 32.2 | 0.00 | 0.00 | 0.00 | 1 | 1018.7 |
| 20260506212723 | 12 | 344 | 8.0 | 32.2 | 0.00 | 0.00 | 0.00 | 1 | 1018.6 |
| 20260506212218 | 13 | 275 | 6.4 | 22.5 | 0.00 | 0.00 | 0.00 | 1 | 1018.6 |
| 20260506211714 | 12 | 290 | 24.1 | 40.2 | 0.00 | 0.00 | 0.00 | 1 | 1018.8 |
| 20260506211210 | 11 | 267 | 12.9 | 24.1 | 0.00 | 0.00 | 0.00 | 1 | 1018.8 |
| 20260506210708 | 12 | 229 | 19.3 | 27.4 | 0.00 | 0.00 | 0.00 | 1 | 1018.8 |
| 20260506210204 | 12 | 289 | 9.7 | 27.4 | 0.00 | 0.00 | 0.00 | 1 | 1018.9 |
| 20260506205702 | 12 | 295 | 22.5 | 29.0 | 0.00 | 0.00 | 0.00 | 1 | 1019.1 |
| 20260506205156 | 12 | 93 | 4.8 | 16.1 | 0.00 | 0.00 | 0.00 | 1 | 1019.1 |
| 20260506204654 | 12 | 289 | 8.0 | 29.0 | 0.00 | 0.00 | 0.00 | 1 | 1019.1 |
| 20260506204151 | 12 | 334 | 4.8 | 12.9 | 0.00 | 0.00 | 0.00 | 1 | 1019.3 |
| 20260506203649 | 12 | 282 | 22.5 | 30.6 | 0.00 | 0.00 | 0.00 | 1 | 1019.4 |
| 20260506203146 | 11 | 263 | 33.8 | 40.2 | 0.00 | 0.00 | 0.00 | 1 | 1019.4 |
| 20260506202644 | 11 | 273 | 22.5 | 35.4 | 0.00 | 0.00 | 0.00 | 1 | 1019.5 |
| 20260506202140 | 11 | 263 | 11.3 | 25.7 | 0.00 | 0.00 | 0.00 | 1 | 1019.5 |
| 20260506201637 | 11 | 259 | 24.1 | 30.6 | 0.00 | 0.00 | 0.00 | 1 | 1019.8 |
| 20260506201133 | 11 | 258 | 12.9 | 33.8 | 0.00 | 0.00 | 0.00 | 1 | 1019.6 |
| 20260506200630 | 11 | 304 | 6.4 | 27.4 | 0.00 | 0.00 | 0.00 | 1 | 1019.7 |
| 20260506200127 | 11 | 285 | 11.3 | 27.4 | 0.00 | 0.00 | 0.00 | 1 | 1019.7 |
| 20260506195623 | 11 | 277 | 24.1 | 29.0 | 0.00 | 0.00 | 0.00 | 1 | 1019.7 |
| 20260506195120 | 11 | 269 | 19.3 | 32.2 | 0.00 | 0.00 | 0.00 | 1 | 1020.1 |
| 20260506194617 | 11 | 253 | 4.8 | 29.0 | 0.00 | 0.00 | 0.00 | 1 | 1019.9 |
| 20260506194113 | 11 | 307 | 12.9 | 40.2 | 0.00 | 0.00 | 0.00 | 1 | 1020.0 |
| 20260506193611 | 11 | 333 | 24.1 | 35.4 | 0.00 | 0.00 | 0.00 | 1 | 1019.8 |
| 20260506193108 | 11 | 260 | 11.3 | 35.4 | 0.00 | 0.00 | 0.00 | 1 | 1020.0 |
| 20260506192605 | 11 | 279 | 8.0 | 16.1 | 0.00 | 0.00 | 0.00 | 1 | 1020.0 |
| 20260506192101 | 11 | 251 | 43.5 | 46.7 | 0.00 | 0.00 | 0.00 | 1 | 1020.1 |
| 20260506191558 | 11 | 264 | 11.3 | 27.4 | 0.00 | 0.00 | 0.00 | 1 | 1020.2 |
| 20260506191053 | 11 | 294 | 25.7 | 33.8 | 0.00 | 0.00 | 0.00 | 1 | 1020.4 |
| 20260506190551 | 10 | 291 | 14.5 | 29.0 | 0.00 | 0.00 | 0.00 | 1 | 1020.5 |
| 20260506190048 | 10 | 281 | 20.9 | 37.0 | 0.00 | 0.00 | 0.00 | 1 | 1020.5 |
| 20260506185545 | 10 | 281 | 22.5 | 25.7 | 0.00 | 0.00 | 0.00 | 1 | 1020.5 |
| 20260506185042 | 11 | 71 | 4.8 | 19.3 | 0.00 | 0.00 | 0.00 | 1 | 1020.5 |
| 20260506184539 | 11 | 270 | 17.7 | 22.5 | 0.00 | 0.00 | 0.00 | 1 | 1020.7 |
| 20260506184036 | 10 | 266 | 12.9 | 40.2 | 0.00 | 0.00 | 0.00 | 1 | 1020.9 |
| 20260506183532 | 10 | 225 | 14.5 | 25.7 | 0.00 | 0.00 | 0.00 | 1 | 1020.8 |
| 20260506183029 | 10 | 324 | 17.7 | 38.6 | 0.00 | 0.00 | 0.00 | 1 | 1020.9 |
| 20260506182526 | 10 | 287 | 19.3 | 30.6 | 0.00 | 0.00 | 0.00 | 1 | 1021.0 |
| 20260506182023 | 10 | 259 | 19.3 | 25.7 | 0.00 | 0.00 | 0.00 | 1 | 1021.2 |
| 20260506181521 | 10 | 225 | 4.8 | 12.9 | 0.00 | 0.00 | 0.00 | 1 | 1021.2 |
| 20260506181018 | 10 | 294 | 12.9 | 37.0 | 0.00 | 0.00 | 0.00 | 1 | 1021.3 |
| 20260506180514 | 10 | 251 | 24.1 | 33.8 | 0.00 | 0.00 | 0.00 | 1 | 1021.3 |
| 20260506180011 | 10 | 226 | 19.3 | 33.8 | 0.00 | 0.00 | 0.00 | 1 | 1021.4 |
| 20260506175508 | 10 | 337 | 4.8 | 40.2 | 0.00 | 0.00 | 0.00 | 1 | 1021.3 |
| 20260506175004 | 10 | 286 | 24.1 | 32.2 | 0.00 | 0.00 | 0.00 | 1 | 1021.5 |
| 20260506174503 | 10 | 289 | 17.7 | 24.1 | 0.00 | 0.00 | 0.00 | 1 | 1021.6 |
| 20260506173958 | 8 | 262 | 17.7 | 27.4 | 0.00 | 0.00 | 0.00 | 1 | 1021.7 |
| 20260506173456 | 9 | 288 | 17.7 | 33.8 | 0.00 | 0.00 | 0.00 | 1 | 1021.8 |
| 20260506172952 | 9 | 290 | 27.4 | 43.5 | 0.00 | 0.00 | 0.00 | 1 | 1021.8 |
| 20260506172450 | 9 | 252 | 17.7 | 38.6 | 0.00 | 0.00 | 0.00 | 1 | 1021.7 |
| 20260506171946 | 9 | 290 | 17.7 | 29.0 | 0.00 | 0.00 | 0.00 | 1 | 1021.7 |
| 20260506171444 | 10 | 339 | 11.3 | 24.1 | 0.00 | 0.00 | 0.00 | 1 | 1021.8 |
| 20260506170941 | 8 | 248 | 16.1 | 29.0 | 0.00 | 0.00 | 0.00 | 1 | 1021.8 |
| 20260506170437 | 8 | 315 | 12.9 | 37.0 | 0.00 | 0.00 | 0.00 | 1 | 1022.0 |
| 20260506165931 | 8 | 319 | 19.3 | 33.8 | 0.00 | 0.00 | 0.00 | 1 | 1022.0 |
| 20260506165429 | 8 | 301 | 19.3 | 32.2 | 0.00 | 0.00 | 0.00 | 1 | 1022.4 |
| 20260506164924 | 8 | 312 | 11.3 | 30.6 | 0.00 | 0.00 | 0.00 | 1 | 1022.3 |
| 20260506164421 | 8 | 269 | 12.9 | 35.4 | 0.00 | 0.00 | 0.00 | 1 | 1022.3 |
| 20260506163920 | 8 | 302 | 24.1 | 40.2 | 0.00 | 0.00 | 0.00 | 1 | 1022.0 |
| 20260506163414 | 8 | 271 | 17.7 | 41.8 | 0.00 | 0.00 | 0.00 | 1 | 1022.0 |
| 20260506162909 | 8 | 268 | 20.9 | 29.0 | 0.00 | 0.00 | 0.00 | 1 | 1022.1 |
| 20260506162407 | 8 | 307 | 8.0 | 33.8 | 0.00 | 0.00 | 0.00 | 1 | 1022.3 |
| 20260506161904 | 8 | 331 | 8.0 | 24.1 | 0.00 | 0.00 | 0.00 | 1 | 1022.4 |
| 20260506161402 | 7 | 291 | 12.9 | 41.8 | 0.00 | 0.00 | 0.00 | 1 | 1022.5 |
| 20260506160859 | 7 | 246 | 17.7 | 32.2 | 0.00 | 0.00 | 0.00 | 1 | 1022.4 |
| 20260506160356 | 7 | 292 | 8.0 | 33.8 | 0.00 | 0.00 | 0.00 | 1 | 1022.4 |
| 20260506155854 | 7 | 261 | 9.7 | 27.4 | 0.00 | 0.00 | 0.00 | 1 | 1022.3 |
| 20260506155350 | 7 | 266 | 14.5 | 27.4 | 0.00 | 0.00 | 0.00 | 1 | 1022.5 |
| 20260506153508 | 7 | 302 | 8.0 | 30.6 | 0.00 | 0.00 | 0.00 | 1 | 1022.5 |
| 20260506153005 | 7 | 251 | 24.1 | 29.0 | 0.00 | 0.00 | 0.00 | 1 | 1022.5 |
| 20260506152502 | 7 | 331 | 6.4 | 22.5 | 0.00 | 0.00 | 0.00 | 1 | 1022.4 |
| 20260506152000 | 6 | 259 | 12.9 | 29.0 | 0.00 | 0.00 | 0.00 | 1 | 1022.5 |
| 20260506151458 | 6 | 248 | 8.0 | 20.9 | 0.00 | 0.00 | 0.00 | 1 | 1022.3 |
| 20260506150955 | 6 | 277 | 12.9 | 22.5 | 0.00 | 0.00 | 0.00 | 1 | 1022.5 |
| 20260506150450 | 6 | 294 | 8.0 | 16.1 | 0.00 | 0.00 | 0.00 | 1 | 1022.6 |
| 20260506145948 | 6 | 268 | 9.7 | 27.4 | 0.00 | 0.00 | 0.00 | 1 | 1022.8 |
| 20260506145444 | 5 | 223 | 11.3 | 22.5 | 0.00 | 0.00 | 0.00 | 1 | 1022.5 |
| 20260506144942 | 5 | 262 | 16.1 | 24.1 | 0.00 | 0.00 | 0.00 | 1 | 1022.8 |
| 20260506144438 | 5 | 272 | 14.5 | 24.1 | 0.00 | 0.00 | 0.00 | 1 | 1022.6 |
| 20260506143937 | 5 | 268 | 19.3 | 22.5 | 0.00 | 0.00 | 0.00 | 1 | 1022.7 |
| 20260506143433 | 5 | 289 | 14.5 | 25.7 | 0.00 | 0.00 | 0.00 | 1 | 1022.8 |
| 20260506142932 | 5 | 250 | 19.3 | 25.7 | 0.00 | 0.00 | 0.00 | 1 | 1022.7 |
| 20260506142429 | 4 | 269 | 16.1 | 29.0 | 0.00 | 0.00 | 0.00 | 1 | 1022.5 |
| 20260506141927 | 4 | 263 | 17.7 | 25.7 | 0.00 | 0.00 | 0.00 | 1 | 1022.6 |
| 20260506141425 | 3 | 273 | 17.7 | 22.5 | 0.00 | 0.00 | 0.00 | 1 | 1022.6 |
| 20260506140923 | 3 | 281 | 12.9 | 17.7 | 0.00 | 0.00 | 0.00 | 1 | 1022.8 |
| 20260506140420 | 3 | 248 | 6.4 | 14.5 | 0.00 | 0.00 | 0.00 | 1 | 1022.7 |
| 20260506135917 | 2 | 229 | 9.7 | 20.9 | 0.00 | 0.00 | 0.00 | 1 | 1022.6 |
| 20260506135414 | 2 | 252 | 9.7 | 17.7 | 0.00 | 0.00 | 0.00 | 1 | 1022.6 |
| 20260506134910 | 1 | 221 | 12.9 | 17.7 | 0.00 | 0.00 | 0.00 | 1 | 1022.7 |
| 20260506134406 | 1 | 288 | 12.9 | 14.5 | 0.00 | 0.00 | 0.00 | 1 | 1022.5 |
| 20260506133903 | 1 | 233 | 11.3 | 17.7 | 0.00 | 0.00 | 0.00 | 1 | 1022.6 |
| 20260506133400 | 0 | 239 | 11.3 | 17.7 | 0.00 | 0.00 | 0.00 | 1 | 1022.7 |
| 20260506132856 | 0 | 239 | 16.1 | 17.7 | 0.00 | 0.00 | 0.00 | 1 | 1022.5 |
| 20260506132354 | 0 | 254 | 16.1 | 20.9 | 0.00 | 0.00 | 0.00 | 1 | 1022.6 |
| 20260506131852 | 0 | 258 | 12.9 | 17.7 | 0.00 | 0.00 | 0.00 | 1 | 1022.7 |
| 20260506131348 | 0 | 258 | 9.7 | 14.5 | 0.00 | 0.00 | 0.00 | 1 | 1022.6 |
| 20260506130845 | -1 | 232 | 9.7 | 17.7 | 0.00 | 0.00 | 0.00 | 1 | 1022.7 |
| 20260506130341 | -1 | 248 | 8.0 | 14.5 | 0.00 | 0.00 | 0.00 | 1 | 1022.6 |
| 20260506125839 | -1 | 257 | 9.7 | 17.7 | 0.00 | 0.00 | 0.00 | 1 | 1022.5 |
| 20260506125338 | -1 | 240 | 11.3 | 17.7 | 0.00 | 0.00 | 0.00 | 1 | 1022.4 |
| 20260506124835 | -2 | 247 | 20.9 | 22.5 | 0.00 | 0.00 | 0.00 | 1 | 1022.3 |
| 20260506124332 | -2 | 295 | 8.0 | 14.5 | 0.00 | 0.00 | 0.00 | 1 | 1022.5 |
| 20260506123830 | -2 | 238 | 12.9 | 14.5 | 0.00 | 0.00 | 0.00 | 1 | 1022.4 |
| 20260506123328 | -2 | 229 | 8.0 | 11.3 | 0.00 | 0.00 | 0.00 | 1 | 1022.3 |
| 20260506122825 | -2 | 236 | 9.7 | 14.5 | 0.00 | 0.00 | 0.00 | 1 | 1022.5 |
| 20260506122322 | -2 | 244 | 12.9 | 14.5 | 0.00 | 0.00 | 0.00 | 1 | 1022.5 |
| 20260506121820 | -2 | 245 | 9.7 | 14.5 | 0.00 | 0.00 | 0.00 | 1 | 1022.0 |
| 20260506121317 | -2 | 231 | 14.5 | 20.9 | 0.00 | 0.00 | 0.00 | 1 | 1022.1 |
| 20260506120814 | -2 | 259 | 9.7 | 19.3 | 0.00 | 0.00 | 0.00 | 1 | 1022.1 |
| 20260506120312 | -2 | 259 | 9.7 | 12.9 | 0.00 | 0.00 | 0.00 | 1 | 1022.3 |
| 20260506115809 | -2 | 250 | 6.4 | 14.5 | 0.00 | 0.00 | 0.00 | 1 | 1021.8 |
| 20260506115307 | -3 | 268 | 6.4 | 9.7 | 0.00 | 0.00 | 0.00 | 1 | 1021.9 |
| 20260506114805 | -3 | 264 | 4.8 | 9.7 | 0.00 | 0.00 | 0.00 | 1 | 1021.9 |
| 20260506114302 | -3 | 264 | 9.7 | 11.3 | 0.00 | 0.00 | 0.00 | 1 | 1022.0 |
| 20260506113801 | -3 | 259 | 8.0 | 9.7 | 0.00 | 0.00 | 0.00 | 1 | 1021.8 |
| 20260506113258 | -2 | 265 | 8.0 | 12.9 | 0.00 | 0.00 | 0.00 | 1 | 1021.6 |
| 20260506112754 | -2 | 246 | 8.0 | 11.3 | 0.00 | 0.00 | 0.00 | 1 | 1021.6 |
| 20260506112252 | -2 | 259 | 6.4 | 16.1 | 0.00 | 0.00 | 0.00 | 1 | 1021.5 |
| 20260506111749 | -2 | 247 | 12.9 | 16.1 | 0.00 | 0.00 | 0.00 | 1 | 1021.7 |
| 20260506111247 | -2 | 235 | 9.7 | 14.5 | 0.00 | 0.00 | 0.00 | 1 | 1021.6 |
| 20260506110743 | -2 | 241 | 11.3 | 17.7 | 0.00 | 0.00 | 0.00 | 1 | 1021.6 |
| 20260506110241 | -2 | 249 | 11.3 | 14.5 | 0.00 | 0.00 | 0.00 | 1 | 1021.6 |
| 20260506105737 | -2 | 247 | 11.3 | 17.7 | 0.00 | 0.00 | 0.00 | 1 | 1021.5 |
| 20260506105235 | -2 | 242 | 14.5 | 14.5 | 0.00 | 0.00 | 0.00 | 1 | 1021.6 |
| 20260506104732 | -2 | 236 | 14.5 | 17.7 | 0.00 | 0.00 | 0.00 | 1 | 1021.5 |
| 20260506104230 | -2 | 248 | 14.5 | 14.5 | 0.00 | 0.00 | 0.00 | 1 | 1021.4 |
| 20260506103727 | -2 | 242 | 9.7 | 14.5 | 0.00 | 0.00 | 0.00 | 1 | 1021.5 |
| 20260506103224 | -2 | 241 | 11.3 | 14.5 | 0.00 | 0.00 | 0.00 | 1 | 1021.4 |
| 20260506102722 | -2 | 232 | 11.3 | 16.1 | 0.00 | 0.00 | 0.00 | 1 | 1021.5 |
| 20260506102220 | -2 | 225 | 12.9 | 16.1 | 0.00 | 0.00 | 0.00 | 1 | 1021.6 |
| 20260506101716 | -2 | 241 | 16.1 | 17.7 | 0.00 | 0.00 | 0.00 | 1 | 1021.7 |
| 20260506101213 | -2 | 237 | 16.1 | 17.7 | 0.00 | 0.00 | 0.00 | 1 | 1021.4 |
| 20260506100711 | -2 | 235 | 16.1 | 19.3 | 0.00 | 0.00 | 0.00 | 1 | 1021.2 |
| 20260506100209 | -2 | 236 | 14.5 | 17.7 | 0.00 | 0.00 | 0.00 | 1 | 1021.3 |
| 20260506095707 | -2 | 252 | 12.9 | 17.7 | 0.00 | 0.00 | 0.00 | 1 | 1021.4 |
| 20260506095203 | -2 | 243 | 14.5 | 14.5 | 0.00 | 0.00 | 0.00 | 1 | 1021.3 |
| 20260506094701 | -2 | 247 | 8.0 | 12.9 | 0.00 | 0.00 | 0.00 | 1 | 1021.3 |
| 20260506094158 | -2 | 235 | 12.9 | 12.9 | 0.00 | 0.00 | 0.00 | 1 | 1021.3 |